Wiscasset, ME

5:40 AM EST on December 16, 2019 (GMT -0500)
Wiscasset

Weather History for KIWI - October, 2019

Change the Weather History Date:

Thursday, October 24, 2019

  Actual Average Record
Temperature  
Mean Temperature 48 °F -  
Max Temperature 61 °F 52 °F 68 °F (2017)
Min Temperature 34 °F 32 °F 24 °F (2008)
Degree Days  
Heating Degree Days 18    
Moisture  
Dew Point 38 °F    
Average Humidity 70    
Maximum Humidity 97    
Minimum Humidity 39    
Precipitation  
Precipitation 0.00 in - - ()
Sea Level Pressure  
Sea Level Pressure 30.18 in    
Wind  
Wind Speed 3 mph ()    
Max Wind Speed 14 mph    
Max Gust Speed 23 mph    
Visibility 9.7 miles    
Events      
Averages and records for this station are not official NWS values.
T = Trace of Precipitation, MM = Missing Value Source: Averaged Metar Reports

Daily Weather History Graph

Daily Weather History Graph

Search for Another Location

Airport or City:

Astronomy

Oct. 24, 2019 Rise Set
Actual Time 7:04 AM EDT 5:40 PM EDT
Civil Twilight 6:34 AM EDT 6:10 PM EDT
Nautical Twilight 6:01 AM EDT 6:44 PM EDT
Astronomical Twilight 5:27 AM EDT 7:17 PM EDT
Moon 2:17 AM EDT (10/24) 4:17 PM EDT (10/24)
Length of Visible Light 11h 35m
Length of Day
10h 36m
Waning Crescent, 17% of the Moon is Illuminated
Oct 24
Waning Crescent
Oct 27
New
Nov 4
First Quarter
Nov 12
Full
Nov 19
Last Quarter

Hourly Weather History & Observations

Time (EDT) Temp. Windchill Dew Point Humidity Pressure Visibility Wind Dir Wind Speed Gust Speed Precip Events Conditions
12:53 AM 39.0 °F - 36.0 °F 89% 30.06 in 8.0 mi Calm Calm - N/A   Clear
1:53 AM 39.0 °F 36.8 °F 37.0 °F 93% 30.09 in 10.0 mi West 3.5 mph - N/A   Clear
2:53 AM 37.0 °F - 35.1 °F 93% 30.10 in 8.0 mi Calm Calm - N/A   Clear
3:53 AM 36.0 °F - 35.1 °F 97% 30.12 in 9.0 mi Calm Calm - N/A   Clear
4:53 AM 35.1 °F - 33.1 °F 92% 30.15 in 10.0 mi Calm Calm - N/A   Clear
5:53 AM 35.1 °F - 33.1 °F 92% 30.18 in 10.0 mi Calm Calm - N/A   Clear
6:53 AM 34.0 °F - 33.1 °F 96% 30.20 in 10.0 mi Calm Calm - N/A   Clear
7:53 AM 36.0 °F - 35.1 °F 97% 30.22 in 8.0 mi Calm Calm - N/A   Clear
8:53 AM 46.0 °F - 42.1 °F 86% 30.23 in 10.0 mi Calm Calm - N/A   Clear
9:53 AM 54.0 °F - 41.0 °F 62% 30.23 in 10.0 mi Variable 4.6 mph - N/A   Clear
10:53 AM 57.0 °F - 37.0 °F 47% 30.23 in 10.0 mi SSW 11.5 mph 17.3 mph N/A   Clear
11:53 AM 57.9 °F - 35.1 °F 42% 30.22 in 10.0 mi SW 10.4 mph - N/A   Clear
12:53 PM 60.1 °F - 36.0 °F 41% 30.21 in 10.0 mi SSW 13.8 mph 21.9 mph N/A   Clear
1:53 PM 61.0 °F - 36.0 °F 39% 30.18 in 10.0 mi SSW 9.2 mph 20.7 mph N/A   Clear
2:53 PM 60.1 °F - 36.0 °F 41% 30.18 in 10.0 mi SW 11.5 mph 23.0 mph N/A   Clear
3:53 PM 60.1 °F - 39.0 °F 46% 30.17 in 10.0 mi South 9.2 mph - N/A   Clear
4:53 PM 57.9 °F - 39.9 °F 51% 30.17 in 10.0 mi Variable 6.9 mph - N/A   Clear
5:53 PM 57.0 °F - 41.0 °F 55% 30.16 in 10.0 mi SSW 5.8 mph - N/A   Clear
6:53 PM 55.9 °F - 41.0 °F 57% 30.17 in 10.0 mi SW 3.5 mph - N/A   Scattered Clouds
7:53 PM 55.0 °F - 41.0 °F 59% 30.18 in 10.0 mi SW 4.6 mph - N/A   Mostly Cloudy
8:53 PM 55.9 °F - 44.1 °F 64% 30.19 in 10.0 mi SW 6.9 mph - N/A   Clear
9:53 PM 55.9 °F - 45.0 °F 67% 30.20 in 10.0 mi Variable 6.9 mph - N/A   Clear
10:53 PM 51.1 °F - 45.0 °F 80% 30.22 in 10.0 mi Calm Calm - N/A   Clear
11:53 PM 46.9 °F - 44.1 °F 90% 30.22 in 10.0 mi Calm Calm - N/A   Clear